Regional Weather Roundup
Issued by NWS

Home | Current Version | Previous Version | Text Only | Print | Product List | Glossary On
Versions: 1 2 3 4 5 6 7 8 9 10 11 12 13 14 15 16 17 18 19 20 21 22 23 24 25 26 27 28 29 30 31 32 33 34 35 36 37 38 39 40 41 42 43 44 45 46 47 48 49 50
047
ASUS43 KOAX 130010
RWRNE

WEATHER ROUNDUP FOR NEBRASKA
NATIONAL WEATHER SERVICE OMAHA NE
600 PM CST FRI FEB 12 2016

NOTES: SATELLITE DATA IS BEING USED TO AUGMENT CLOUD COVER ABOVE
       12000 FEET.
       "FAIR" INDICATES FEW OR NO CLOUDS BELOW 12,000 FEET WITH NO
       SIGNIFICANT WEATHER AND/OR OBSTRUCTIONS TO VISIBILITY.

  * THESE STATIONS DO NOT REPORT WEATHER SUCH AS RAIN...SNOW OR FOG.

NEZ001>004-019>022-054>056-130100-
NEBRASKA PANHANDLE

CITY           SKY/WX    TMP DP  RH WIND       PRES   REMARKS
SCOTTSBLUFF    CLOUDY    35  31  85 SE15      30.29S WCI  25
6HR MIN TEMP:  35; 6HR MAX TEMP:  40;

ALLIANCE       CLOUDY    34  29  82 SE9       30.29F WCI  27
6HR MIN TEMP:  30; 6HR MAX TEMP:  34;

CHADRON        CLOUDY    36  28  73 SE10      30.32R WCI  28
6HR MIN TEMP:  35; 6HR MAX TEMP:  39;

KIMBALL        MOCLDY    34  32  92 SE13      30.27S WCI  25
SIDNEY         FOG       31  30  96 SE15      30.30F VSB 1/4 WCI  20
6HR MIN TEMP:  31; 6HR MAX TEMP:  36;

$$

NEZ057>060-069>072-079>082-130100-
SOUTHWEST NEBRASKA

CITY           SKY/WX    TMP DP  RH WIND       PRES   REMARKS
NORTH PLATTE   CLOUDY    31  24  75 E10       30.40S WCI  22
6HR MIN TEMP:  31; 6HR MAX TEMP:  36;

IMPERIAL       CLOUDY    34  30  85 SE9       30.36F WCI  27
6HR MIN TEMP:  34; 6HR MAX TEMP:  36;

LEXINGTON      CLOUDY    28  24  85 E13       30.46S WCI  17
MCCOOK         CLOUDY    33  29  85 E12       30.41S WCI  24
6HR MIN TEMP:  33; 6HR MAX TEMP:  37;

OGALLALA       CLOUDY    34  29  80 E8        30.36S WCI  27
$$

NEZ005>010-023>029-035>040-094-130100-
NORTH CENTRAL NEBRASKA

CITY           SKY/WX    TMP DP  RH WIND       PRES   REMARKS
VALENTINE      CLOUDY    24  15  68 E8        30.45R WCI  15
6HR MIN TEMP:  24; 6HR MAX TEMP:  26;

AINSWORTH      CLOUDY    24  16  71 E7        30.44S WCI  16
BROKEN BOW     CLOUDY    27  19  72 E6        30.44S WCI  20
6HR MIN TEMP:  27; 6HR MAX TEMP:  29;

O`NEILL        CLOUDY    19  10  68 NE9       30.52S WCI   8
ORD            CLOUDY    23  15  71 NE9       30.49S WCI  13
6HR MIN TEMP:  23; 6HR MAX TEMP:  28;

THEDFORD       CLOUDY    29  22  75 E5        30.42S WCI  24
$$

NEZ041-046>049-061>064-073>077-083>087-130100-
SOUTH CENTRAL NEBRASKA

CITY           SKY/WX    TMP DP  RH WIND       PRES   REMARKS
GRAND ISLAND   CLOUDY    22  14  71 NE13      30.52R WCI  10
6HR MIN TEMP:  22; 6HR MAX TEMP:  27;

AURORA         CLOUDY    22  15  76 NE13      30.51S WCI  10
HASTINGS       CLOUDY    24  14  65 NE10      30.49S WCI  14
6HR MIN TEMP:  24; 6HR MAX TEMP:  32;

HEBRON         CLOUDY    26  17  69 NE10      30.53R WCI  16
HOLDREGE       CLOUDY    26  22  85 E13       30.46S WCI  15
KEARNEY *      CLOUDY    25  18  74 E10       30.49R WCI  15
YORK           PTCLDY    19  14  79 N9        30.54R WCI   9
$$

NEZ011>018-030>034-042>045-130100-
NORTHEAST NEBRASKA

CITY           SKY/WX    TMP DP  RH WIND       PRES   REMARKS
NORFOLK        CLOUDY    15   5  64 N10       30.55S WCI   2
6HR MIN TEMP:  15; 6HR MAX TEMP:  22; 6HR PCP: TRACE;

ALBION         CLOUDY    19  10  69 NE8       30.54R WCI   9
BLAIR          CLOUDY    15   3  59 N13       30.56R WCI   1
COLUMBUS *     CLOUDY    18   1  49 N10       30.57R WCI   6
FREMONT        CLOUDY    17   6  62 N6        30.59R WCI   8
TEKAMAH        CLOUDY    13   4  67 N8        30.60S WCI   2
6HR MIN TEMP:  13; 6HR MAX TEMP:  20;

WAYNE          CLOUDY    12   5  73 N3        30.58S
$$

NEZ050>053-065>068-078-088>093-130100-
SOUTHEAST NEBRASKA

CITY           SKY/WX    TMP DP  RH WIND       PRES   REMARKS
LINCOLN        CLOUDY    20  12  71 NE16G24   30.58R WCI   6
6HR MIN TEMP:  20; 6HR MAX TEMP:  28;

OMAHA EPPLEY   CLOUDY    16   5  62 N13       30.60R WCI   2
6HR MIN TEMP:  16; 6HR MAX TEMP:  25;

BEATRICE       CLEAR     23  13  65 NE10      30.54S WCI  12
FALLS CITY     CLEAR     24  11  57 N10       30.54R WCI  14
6HR MIN TEMP:  24; 6HR MAX TEMP:  33;

NEBRASKA CITY  PTCLDY    21   7  54 N13G21    30.55R WCI   9
PLATTSMOUTH    PTCLDY    18   4  53 NW10      30.56R WCI   7
$$

NEZ044-045-051>053-067-130100-
OMAHA AREA

CITY           SKY/WX    TMP DP  RH WIND       PRES   REMARKS
OMAHA EPPLEY   CLOUDY    16   5  62 N13       30.60R WCI   2
6HR MIN TEMP:  16; 6HR MAX TEMP:  25;

BLAIR          CLOUDY    15   3  59 N13       30.56R WCI   1
FREMONT        CLOUDY    17   6  62 N6        30.59R WCI   8
MILLARD        CLOUDY    18   1  48 N5        30.59R WCI  11
OFFUTT AFB     MOCLDY    17   5  58 N10       30.59R WCI   5
PLATTSMOUTH    PTCLDY    18   4  53 NW10      30.56R WCI   7
WAHOO          FAIR      17  10  74 N12       30.58R WCI   4
$$




USA.gov is the U.S. government's official web portal to all federal, state and local government web resources and services.